Location: Hancock Field Station
(44.9202°N, 120.4259°W)
Time: 08:01:10
(UTC-07:00)

Nadezhda 4 Rocket - Visible Passes

Search period start: 30 April 2016 00:00
Search period end: 10 May 2016 00:00
Orbit: 951 x 991 km, 82.9° (Epoch: 28 April)

Date Brightness Start Highest point End Pass type
(mag) Time Alt. Az. Time Alt. Az. Time Alt. Az.
30 Apr 5.2 01:42:23 28° ESE 01:43:42 30° E 01:49:02 10° NNE visible
30 Apr 4.4 03:26:57 37° WSW 03:28:43 45° WNW 03:34:45 10° N visible
01 May 4.4 02:06:23 46° SE 02:07:31 51° E 02:13:36 10° NNE visible
01 May 5.1 03:50:57 22° W 03:53:08 27° WNW 03:58:25 10° NNW visible
02 May 6.1 00:45:48 13° E 00:47:16 14° ENE 00:50:14 10° NE visible
02 May 3.9 02:30:22 62° S 02:31:32 87° E 02:37:52 10° N visible
02 May 5.7 04:14:56 13° W 04:17:43 16° WNW 04:21:35 10° NNW visible
03 May 5.5 01:09:46 23° E 01:10:52 24° E 01:15:47 10° NNE visible
03 May 4.2 02:54:20 47° WSW 02:55:41 56° WNW 03:01:54 10° N visible
04 May 4.7 01:33:43 39° ESE 01:34:39 42° E 01:40:30 10° NNE visible
04 May 4.9 03:18:17 29° WSW 03:20:01 33° WNW 03:25:41 10° N visible
05 May 6.2 00:13:14 10° E 00:14:32 11° ENE 00:15:51 10° ENE visible
05 May 4.0 01:57:40 62° SE 01:58:35 71° E 02:04:53 10° NNE visible
05 May 5.5 03:42:14 17° W 03:44:32 20° WNW 03:49:05 10° NNW visible
06 May 5.7 00:37:02 19° E 00:38:05 20° E 00:42:25 10° NE visible
06 May 4.0 02:21:36 58° SW 02:22:41 69° W 02:29:00 10° N visible
06 May 6.0 04:07:02 10° W 04:09:16 12° WNW 04:11:29 10° NW visible
07 May 5.0 01:00:57 32° ESE 01:01:48 34° E 01:07:21 10° NNE visible
07 May 4.6 02:45:31 36° WSW 02:46:57 41° WNW 02:52:54 10° N visible
08 May 4.2 01:24:52 54° ESE 01:25:40 58° E 01:31:51 10° NNE visible
08 May 5.3 03:09:26 21° W 03:11:23 25° WNW 03:16:29 10° NNW visible
09 May 5.9 00:04:12 15° E 00:05:19 16° ENE 00:08:52 10° NE visible
09 May 3.9 01:48:46 67° SSW 01:49:42 85° W 01:56:04 10° N visible
09 May 5.9 03:33:20 12° W 03:36:01 15° WNW 03:39:28 10° NNW visible
